| time (UTC) | temp F | wind direction | speed MPH | gust MPH | rain 1hr in | rain 24hr in | rain mn in | humidity % | barometer mb |
| 20260505053333 | 62 | 281 | 0.0 | 2.0 | 0.00 | 0.00 | 0.00 | 46 | 1000.2 |
| 20260505052833 | 62 | 0 | 0.0 | 0.0 | 0.00 | 0.00 | 0.00 | 48 | 1000.0 |
| 20260505052333 | 62 | 0 | 0.0 | 0.0 | 0.00 | 0.00 | 0.00 | 51 | 999.8 |
| 20260505051833 | 62 | 0 | 0.0 | 0.0 | 0.00 | 0.00 | 0.00 | 52 | 999.7 |
| 20260505051333 | 63 | 0 | 0.0 | 0.0 | 0.00 | 0.00 | 0.00 | 52 | 999.8 |
| 20260505050833 | 63 | 0 | 0.0 | 0.0 | 0.00 | 0.00 | 0.00 | 52 | 999.5 |
| 20260505050333 | 62 | 0 | 0.0 | 0.0 | 0.00 | 0.00 | 0.00 | 52 | 999.4 |
| 20260505041333 | 63 | 0 | 0.0 | 0.0 | 0.00 | 0.00 | 0.00 | 73 | 999.3 |
| 20260505040833 | 64 | 0 | 0.0 | 0.0 | 0.00 | 0.00 | 0.00 | 73 | 999.1 |
| 20260505040333 | 64 | 0 | 0.0 | 0.0 | 0.00 | 0.00 | 0.00 | 73 | 999.0 |
| 20260505035833 | 64 | 0 | 0.0 | 0.0 | 0.00 | 0.00 | 0.00 | 72 | 998.8 |
| 20260505035333 | 64 | 0 | 0.0 | 0.0 | 0.00 | 0.00 | 0.00 | 73 | 998.8 |
| 20260505034833 | 64 | 0 | 0.0 | 0.0 | 0.00 | 0.00 | 0.00 | 73 | 998.7 |
| 20260505034333 | 64 | 202 | 0.0 | 4.0 | 0.00 | 0.00 | 0.00 | 72 | 998.6 |
| 20260505033833 | 64 | 202 | 0.0 | 4.0 | 0.00 | 0.00 | 0.00 | 73 | 998.4 |
| 20260505033333 | 64 | 216 | 0.0 | 3.0 | 0.00 | 0.00 | 0.00 | 73 | 998.3 |
| 20260505032833 | 64 | 0 | 0.0 | 0.0 | 0.00 | 0.00 | 0.00 | 73 | 998.3 |
| 20260505032333 | 64 | 226 | 0.0 | 2.0 | 0.00 | 0.00 | 0.00 | 73 | 998.2 |
| 20260505031833 | 64 | 226 | 0.0 | 3.0 | 0.00 | 0.00 | 0.00 | 73 | 998.4 |
| 20260505031333 | 64 | 204 | 0.0 | 3.0 | 0.00 | 0.00 | 0.00 | 73 | 998.5 |
| 20260505030833 | 65 | 238 | 0.0 | 2.0 | 0.00 | 0.00 | 0.00 | 73 | 998.6 |
| 20260505030333 | 65 | 219 | 0.0 | 1.0 | 0.00 | 0.00 | 0.00 | 73 | 998.6 |
| 20260505025833 | 65 | 219 | 0.0 | 1.0 | 0.00 | 0.00 | 0.00 | 73 | 998.6 |
| 20260505025333 | 65 | 0 | 0.0 | 0.0 | 0.00 | 0.00 | 0.00 | 73 | 998.4 |
| 20260505024833 | 65 | 213 | 0.0 | 1.0 | 0.00 | 0.00 | 0.00 | 73 | 998.3 |
| 20260505024333 | 65 | 213 | 0.0 | 1.0 | 0.00 | 0.00 | 0.00 | 72 | 998.2 |
| 20260505023833 | 65 | 211 | 0.0 | 2.0 | 0.00 | 0.00 | 0.00 | 72 | 998.0 |
| 20260505023333 | 66 | 211 | 0.0 | 2.0 | 0.00 | 0.00 | 0.00 | 72 | 997.8 |
| 20260505022833 | 66 | 213 | 0.0 | 2.0 | 0.00 | 0.00 | 0.00 | 72 | 997.7 |
| 20260505022333 | 66 | 213 | 0.0 | 4.0 | 0.00 | 0.00 | 0.00 | 72 | 997.4 |
| 20260505021833 | 66 | 217 | 1.0 | 4.0 | 0.00 | 0.00 | 0.00 | 71 | 997.3 |
| 20260505021333 | 66 | 210 | 0.0 | 3.0 | 0.00 | 0.00 | 0.00 | 72 | 997.3 |
| 20260505020833 | 66 | 217 | 0.0 | 3.0 | 0.00 | 0.00 | 0.00 | 72 | 997.2 |
| 20260505020333 | 66 | 212 | 0.0 | 5.0 | 0.00 | 0.00 | 0.00 | 72 | 997.2 |
| 20260505015833 | 66 | 224 | 1.0 | 5.0 | 0.00 | 0.00 | 0.00 | 72 | 997.2 |
| 20260505015333 | 66 | 234 | 0.0 | 6.0 | 0.00 | 0.00 | 0.00 | 73 | 997.2 |
| 20260505014833 | 66 | 260 | 0.0 | 6.0 | 0.00 | 0.00 | 0.00 | 73 | 997.1 |
| 20260505014333 | 66 | 207 | 0.0 | 3.0 | 0.00 | 0.00 | 0.00 | 74 | 996.9 |
| 20260505013833 | 66 | 225 | 0.0 | 3.0 | 0.00 | 0.00 | 0.00 | 75 | 996.8 |
| 20260505013333 | 66 | 212 | 0.0 | 2.0 | 0.00 | 0.00 | 0.00 | 75 | 996.9 |
| 20260505012833 | 66 | 231 | 0.0 | 3.0 | 0.00 | 0.00 | 0.00 | 75 | 997.0 |
| 20260505012333 | 65 | 212 | 0.0 | 3.0 | 0.00 | 0.00 | 0.00 | 75 | 997.0 |
| 20260505011833 | 65 | 208 | 0.0 | 3.0 | 0.00 | 0.00 | 0.00 | 75 | 996.8 |
| 20260505011333 | 65 | 205 | 0.0 | 3.0 | 0.00 | 0.00 | 0.00 | 76 | 996.4 |
| 20260505010833 | 65 | 205 | 0.0 | 3.0 | 0.00 | 0.00 | 0.00 | 75 | 996.3 |
| 20260505010333 | 65 | 205 | 0.0 | 3.0 | 0.00 | 0.00 | 0.00 | 76 | 996.3 |
| 20260505005833 | 65 | 200 | 0.0 | 2.0 | 0.00 | 0.00 | 0.00 | 76 | 996.4 |
| 20260505005333 | 65 | 210 | 0.0 | 3.0 | 0.00 | 0.00 | 0.00 | 76 | 996.3 |
| 20260505004833 | 65 | 204 | 0.0 | 3.0 | 0.00 | 0.00 | 0.00 | 77 | 996.2 |
| 20260505004333 | 65 | 187 | 0.0 | 2.0 | 0.00 | 0.00 | 0.00 | 79 | 996.0 |
| 20260505003833 | 65 | 194 | 0.0 | 2.0 | 0.00 | 0.00 | 0.00 | 80 | 996.0 |
| 20260505003333 | 65 | 202 | 0.0 | 1.0 | 0.00 | 0.00 | 0.00 | 81 | 995.9 |
| 20260505002833 | 65 | 0 | 0.0 | 0.0 | 0.00 | 0.00 | 0.00 | 81 | 995.8 |
| 20260505002333 | 65 | 0 | 0.0 | 0.0 | 0.00 | 0.00 | 0.00 | 81 | 995.8 |
| 20260505001833 | 65 | 0 | 0.0 | 0.0 | 0.00 | 0.00 | 0.00 | 81 | 995.9 |
| 20260505001333 | 65 | 0 | 0.0 | 0.0 | 0.00 | 0.00 | 0.00 | 81 | 995.9 |
| 20260505000833 | 65 | 0 | 0.0 | 0.0 | 0.00 | 0.00 | 0.00 | 80 | 995.5 |
| 20260505000333 | 65 | 190 | 0.0 | 1.0 | 0.00 | 0.00 | 0.00 | 80 | 995.4 |
| 20260504235833 | 66 | 190 | 0.0 | 1.0 | 0.00 | 0.00 | 0.00 | 80 | 995.6 |
| 20260504235333 | 66 | 190 | 0.0 | 1.0 | 0.00 | 0.00 | 0.00 | 80 | 995.6 |
| 20260504234833 | 66 | 190 | 0.0 | 3.0 | 0.00 | 0.00 | 0.00 | 80 | 995.6 |
| 20260504234333 | 67 | 190 | 0.0 | 3.0 | 0.00 | 0.00 | 0.00 | 79 | 995.8 |
| 20260504233833 | 67 | 189 | 0.0 | 2.0 | 0.00 | 0.00 | 0.00 | 79 | 995.8 |
| 20260504233333 | 68 | 189 | 0.0 | 2.0 | 0.00 | 0.00 | 0.00 | 77 | 995.8 |
| 20260504232833 | 68 | 0 | 0.0 | 0.0 | 0.00 | 0.00 | 0.00 | 76 | 996.2 |
| 20260504232333 | 70 | 225 | 0.0 | 2.0 | 0.00 | 0.00 | 0.00 | 73 | 996.4 |
| 20260504231833 | 71 | 225 | 0.0 | 3.0 | 0.00 | 0.00 | 0.00 | 69 | 996.2 |
| 20260504231333 | 73 | 264 | 0.0 | 11.0 | 0.00 | 0.00 | 0.00 | 65 | 996.4 |
| 20260504230833 | 76 | 281 | 3.0 | 11.0 | 0.00 | 0.00 | 0.00 | 61 | 997.0 |
| 20260504230333 | 77 | 274 | 2.0 | 6.0 | 0.00 | 0.00 | 0.00 | 46 | 996.5 |
| 20260504225833 | 78 | 251 | 2.0 | 6.0 | 0.00 | 0.00 | 0.00 | 44 | 996.0 |
| 20260504225333 | 78 | 248 | 1.0 | 5.0 | 0.00 | 0.00 | 0.00 | 43 | 995.6 |
| 20260504224833 | 79 | 240 | 0.0 | 2.0 | 0.00 | 0.00 | 0.00 | 42 | 995.5 |
| 20260504224333 | 79 | 259 | 0.0 | 2.0 | 0.00 | 0.00 | 0.00 | 42 | 995.4 |
| 20260504223833 | 79 | 259 | 0.0 | 2.0 | 0.00 | 0.00 | 0.00 | 42 | 995.5 |
| 20260504223333 | 79 | 238 | 0.0 | 2.0 | 0.00 | 0.00 | 0.00 | 40 | 995.6 |
| 20260504222833 | 80 | 244 | 0.0 | 4.0 | 0.00 | 0.00 | 0.00 | 41 | 995.6 |
| 20260504222333 | 80 | 195 | 0.0 | 4.0 | 0.00 | 0.00 | 0.00 | 40 | 995.6 |
| 20260504221833 | 80 | 245 | 1.0 | 6.0 | 0.00 | 0.00 | 0.00 | 39 | 995.7 |
| 20260504221333 | 80 | 243 | 2.0 | 9.0 | 0.00 | 0.00 | 0.00 | 39 | 995.7 |
| 20260504220833 | 81 | 255 | 2.0 | 9.0 | 0.00 | 0.00 | 0.00 | 39 | 995.7 |
| 20260504220333 | 81 | 248 | 2.0 | 9.0 | 0.00 | 0.00 | 0.00 | 39 | 995.8 |
| 20260504215833 | 81 | 227 | 2.0 | 9.0 | 0.00 | 0.00 | 0.00 | 40 | 995.8 |
| 20260504215333 | 81 | 230 | 1.0 | 7.0 | 0.00 | 0.00 | 0.00 | 39 | 995.8 |
| 20260504214833 | 81 | 220 | 2.0 | 7.0 | 0.00 | 0.00 | 0.00 | 38 | 995.8 |
| 20260504214333 | 81 | 227 | 2.0 | 6.0 | 0.00 | 0.00 | 0.00 | 38 | 996.0 |
| 20260504213833 | 82 | 242 | 2.0 | 6.0 | 0.00 | 0.00 | 0.00 | 37 | 996.1 |
| 20260504213333 | 82 | 253 | 2.0 | 6.0 | 0.00 | 0.00 | 0.00 | 36 | 996.1 |
| 20260504212833 | 82 | 219 | 0.0 | 6.0 | 0.00 | 0.00 | 0.00 | 36 | 996.3 |
| 20260504212333 | 82 | 255 | 1.0 | 6.0 | 0.00 | 0.00 | 0.00 | 36 | 996.2 |
| 20260504211833 | 83 | 232 | 2.0 | 8.0 | 0.00 | 0.00 | 0.00 | 35 | 996.3 |
| 20260504211333 | 83 | 250 | 1.0 | 8.0 | 0.00 | 0.00 | 0.00 | 36 | 996.3 |
| 20260504210833 | 83 | 248 | 1.0 | 4.0 | 0.00 | 0.00 | 0.00 | 36 | 996.3 |
| 20260504210333 | 83 | 230 | 0.0 | 7.0 | 0.00 | 0.00 | 0.00 | 35 | 996.3 |
| 20260504205833 | 83 | 230 | 0.0 | 7.0 | 0.00 | 0.00 | 0.00 | 35 | 996.3 |
| 20260504205333 | 84 | 253 | 0.0 | 3.0 | 0.00 | 0.00 | 0.00 | 34 | 996.4 |
| 20260504204833 | 84 | 253 | 1.0 | 3.0 | 0.00 | 0.00 | 0.00 | 33 | 996.5 |
| 20260504204333 | 83 | 256 | 0.0 | 6.0 | 0.00 | 0.00 | 0.00 | 33 | 996.4 |
| 20260504203833 | 83 | 258 | 1.0 | 6.0 | 0.00 | 0.00 | 0.00 | 32 | 996.4 |
| 20260504203333 | 83 | 295 | 1.0 | 12.0 | 0.00 | 0.00 | 0.00 | 32 | 996.5 |
| 20260504202833 | 83 | 256 | 2.0 | 12.0 | 0.00 | 0.00 | 0.00 | 31 | 996.5 |
| 20260504202333 | 83 | 270 | 1.0 | 7.0 | 0.00 | 0.00 | 0.00 | 33 | 996.5 |
| 20260504201833 | 83 | 252 | 2.0 | 7.0 | 0.00 | 0.00 | 0.00 | 33 | 996.7 |
| 20260504201333 | 83 | 251 | 1.0 | 7.0 | 0.00 | 0.00 | 0.00 | 36 | 996.7 |
| 20260504200833 | 82 | 264 | 1.0 | 7.0 | 0.00 | 0.00 | 0.00 | 35 | 996.9 |
| 20260504200333 | 82 | 223 | 1.0 | 6.0 | 0.00 | 0.00 | 0.00 | 35 | 997.0 |
| 20260504195833 | 82 | 251 | 1.0 | 6.0 | 0.00 | 0.00 | 0.00 | 37 | 997.1 |
| 20260504195333 | 82 | 244 | 1.0 | 4.0 | 0.00 | 0.00 | 0.00 | 35 | 997.2 |
| 20260504194833 | 82 | 231 | 1.0 | 6.0 | 0.00 | 0.00 | 0.00 | 34 | 997.3 |
| 20260504194333 | 82 | 270 | 2.0 | 8.0 | 0.00 | 0.00 | 0.00 | 35 | 997.4 |
| 20260504193833 | 83 | 226 | 2.0 | 8.0 | 0.00 | 0.00 | 0.00 | 34 | 997.5 |
| 20260504193333 | 83 | 240 | 2.0 | 9.0 | 0.00 | 0.00 | 0.00 | 33 | 997.6 |
| 20260504192833 | 82 | 236 | 2.0 | 9.0 | 0.00 | 0.00 | 0.00 | 33 | 997.8 |
| 20260504192333 | 82 | 244 | 3.0 | 7.0 | 0.00 | 0.00 | 0.00 | 33 | 997.8 |
| 20260504191833 | 82 | 249 | 1.0 | 6.0 | 0.00 | 0.00 | 0.00 | 34 | 997.8 |
| 20260504191333 | 82 | 254 | 1.0 | 6.0 | 0.00 | 0.00 | 0.00 | 35 | 997.9 |
| 20260504190833 | 82 | 251 | 1.0 | 9.0 | 0.00 | 0.00 | 0.00 | 36 | 997.8 |
| 20260504190333 | 81 | 234 | 3.0 | 9.0 | 0.00 | 0.00 | 0.00 | 35 | 997.9 |
| 20260504185833 | 81 | 231 | 2.0 | 8.0 | 0.00 | 0.00 | 0.00 | 38 | 997.9 |
| 20260504185333 | 81 | 234 | 3.0 | 7.0 | 0.00 | 0.00 | 0.00 | 35 | 997.8 |
| 20260504184833 | 81 | 254 | 1.0 | 4.0 | 0.00 | 0.00 | 0.00 | 36 | 997.8 |
| 20260504184333 | 81 | 243 | 1.0 | 7.0 | 0.00 | 0.00 | 0.00 | 37 | 997.9 |
| 20260504183833 | 81 | 235 | 2.0 | 7.0 | 0.00 | 0.00 | 0.00 | 37 | 998.0 |
| 20260504183333 | 81 | 234 | 2.0 | 7.0 | 0.00 | 0.00 | 0.00 | 36 | 998.0 |
| 20260504182833 | 80 | 236 | 2.0 | 9.0 | 0.00 | 0.00 | 0.00 | 37 | 998.1 |
| 20260504182333 | 80 | 226 | 1.0 | 9.0 | 0.00 | 0.00 | 0.00 | 36 | 998.1 |
| 20260504181833 | 80 | 227 | 1.0 | 6.0 | 0.00 | 0.00 | 0.00 | 38 | 998.1 |
| 20260504181333 | 79 | 254 | 2.0 | 8.0 | 0.00 | 0.00 | 0.00 | 36 | 998.1 |
| 20260504180833 | 79 | 281 | 2.0 | 12.0 | 0.00 | 0.00 | 0.00 | 37 | 998.3 |
| 20260504180333 | 80 | 231 | 3.0 | 12.0 | 0.00 | 0.00 | 0.00 | 36 | 998.4 |
| 20260504175833 | 80 | 262 | 2.0 | 6.0 | 0.00 | 0.00 | 0.00 | 36 | 998.5 |
| 20260504175333 | 80 | 265 | 2.0 | 6.0 | 0.00 | 0.00 | 0.00 | 36 | 998.6 |
| 20260504174833 | 80 | 230 | 2.0 | 6.0 | 0.00 | 0.00 | 0.00 | 36 | 998.4 |
| 20260504174333 | 79 | 251 | 1.0 | 6.0 | 0.00 | 0.00 | 0.00 | 34 | 998.5 |
| 20260504173833 | 79 | 251 | 2.0 | 6.0 | 0.00 | 0.00 | 0.00 | 37 | 998.6 |
| 20260504173333 | 79 | 231 | 2.0 | 6.0 | 0.00 | 0.00 | 0.00 | 36 | 998.6 |
| 20260504172833 | 79 | 185 | 0.0 | 4.0 | 0.00 | 0.00 | 0.00 | 38 | 998.8 |
| 20260504172333 | 79 | 279 | 2.0 | 6.0 | 0.00 | 0.00 | 0.00 | 37 | 998.9 |
| 20260504171833 | 79 | 252 | 2.0 | 6.0 | 0.00 | 0.00 | 0.00 | 36 | 998.9 |
| 20260504171333 | 78 | 236 | 1.0 | 9.0 | 0.00 | 0.00 | 0.00 | 40 | 998.9 |
| 20260504170833 | 78 | 265 | 2.0 | 9.0 | 0.00 | 0.00 | 0.00 | 38 | 998.9 |
| 20260504170333 | 78 | 239 | 2.0 | 7.0 | 0.00 | 0.00 | 0.00 | 40 | 999.1 |
| 20260504160333 | 75 | 240 | 1.0 | 6.0 | 0.00 | 0.00 | 0.00 | 42 | 1000.1 |
| 20260504150833 | 72 | 267 | 0.0 | 4.0 | 0.00 | 0.00 | 0.00 | 48 | 1000.7 |
| 20260504150333 | 71 | 268 | 1.0 | 4.0 | 0.00 | 0.00 | 0.00 | 48 | 1000.7 |
| 20260504141333 | 68 | 225 | 0.0 | 3.0 | 0.00 | 0.00 | 0.00 | 56 | 1001.4 |
| 20260504140833 | 67 | 267 | 0.0 | 3.0 | 0.00 | 0.00 | 0.00 | 55 | 1001.4 |
| 20260504140333 | 67 | 234 | 1.0 | 4.0 | 0.00 | 0.00 | 0.00 | 55 | 1001.4 |
| 20260504130333 | 58 | 242 | 1.0 | 3.0 | 0.00 | 0.00 | 0.00 | 71 | 1002.2 |
| 20260504110333 | 48 | 0 | 0.0 | 0.0 | 0.00 | 0.00 | 0.00 | 88 | 1002.3 |
| 20260504100333 | 48 | 0 | 0.0 | 0.0 | 0.00 | 0.00 | 0.00 | 88 | 1002.6 |
| 20260504081833 | 50 | 0 | 0.0 | 0.0 | 0.00 | 0.00 | 0.00 | 82 | 1002.2 |
| 20260504081333 | 50 | 0 | 0.0 | 0.0 | 0.00 | 0.00 | 0.00 | 81 | 1002.3 |
| 20260504080833 | 51 | 0 | 0.0 | 0.0 | 0.00 | 0.00 | 0.00 | 81 | 1002.3 |
| 20260504080333 | 51 | 0 | 0.0 | 0.0 | 0.00 | 0.00 | 0.00 | 81 | 1002.3 |
| 20260504070333 | 55 | 0 | 0.0 | 0.0 | 0.00 | 0.00 | 0.00 | 73 | 1003.2 |